Theta_e
352 357 362 361 362 363 363 362 362 361 361 361 360 359 361 360 360 360 360 359 359 358 354 353 351 350 350 349 348 348 348 348 348 350 353 355 357 358 356 354 356 352 357
353 357 362 362 362 361 361 360 361 361 360 360 359 359 360 360 360 359 358 355 353 350 349 347 346 344 343 343 342 341 341 341 342 341 342 345 351 359 360 354 355 355 357
352 356 358 361 361 359 360 361 360 360 360 359 359 359 359 358 357 354 353 352 349 343 341 340 339 339 339 339 339 338 338 340 342 344 347 329 330 356 359 354 352 353 356
351 351 354 361 360 359 359 360 360 359 359 359 359 359 357 355 354 352 350 347 343 340 339 338 337 337 337 336 337 336 337 337 341 342 319 318 352 362 358 354 352 355 357
347 351 356 361 360 359 358 359 359 359 359 359 359 356 353 352 350 348 347 345 341 340 338 337 337 336 336 336 336 336 336 337 338 330 317 315 347 355 354 353 351 351 351
349 354 360 360 359 359 357 358 359 359 358 358 354 351 349 347 348 346 345 342 339 337 336 335 335 335 336 336 337 337 337 339 339 320 321 329 344 351 347 345 344 344 344
349 354 355 360 359 359 358 358 358 356 356 354 352 347 345 345 345 343 340 338 337 335 334 332 332 333 334 335 337 338 338 339 329 321 321 327 337 344 340 338 336 336 336
348 351 352 358 359 359 360 358 355 354 354 352 350 347 345 345 343 340 338 337 335 333 331 330 330 333 335 338 339 339 340 340 331 324 322 326 338 339 335 334 334 334 334
346 347 350 354 357 358 357 355 353 352 352 350 348 347 347 344 343 340 339 336 334 332 329 328 331 335 339 341 341 338 339 341 322 321 317 324 339 335 333 332 332 332 333
343 346 349 352 349 347 347 352 351 350 349 348 348 348 347 345 344 340 341 339 334 332 330 331 335 338 340 340 336 337 338 329 312 311 314 327 336 330 329 329 329 330 331
342 344 348 346 342 340 340 341 346 344 345 346 345 347 344 335 337 335 336 339 335 333 333 335 339 340 335 332 334 336 331 314 312 314 315 332 335 332 329 329 329 329 330
338 343 345 342 337 334 336 330 329 331 333 333 333 335 332 331 329 335 336 340 340 337 338 338 337 334 327 317 317 323 314 313 314 314 316 334 336 333 331 332 329 329 329
339 343 342 338 336 330 327 325 327 327 327 327 328 330 327 330 327 327 326 324 326 331 321 322 320 321 318 317 316 313 314 314 312 314 318 333 337 331 331 331 332 330 329
335 338 339 335 330 327 326 325 324 328 330 328 327 326 325 326 324 325 324 325 322 321 319 319 318 318 317 315 312 313 313 314 314 314 317 327 331 330 331 332 332 330 329
332 335 337 336 334 334 333 331 329 328 329 325 325 327 324 325 322 324 322 325 322 321 319 318 318 316 314 314 314 313 312 312 312 313 313 325 328 332 333 334 331 328 329
332 333 338 337 333 330 330 327 325 325 324 327 325 325 327 325 324 323 322 324 321 321 320 319 315 314 313 312 313 312 312 311 312 312 314 314 326 329 329 329 329 329 329
328 330 333 335 332 329 328 326 326 327 326 324 323 323 322 322 321 321 321 323 322 320 319 317 315 314 312 312 310 311 311 311 312 312 313 314 317 324 325 325 326 327 327
325 329 327 327 326 325 326 326 330 328 325 324 323 323 324 324 325 324 322 320 320 318 316 314 313 311 310 308 307 308 308 309 310 310 311 316 318 317 320 324 325 327 327
327 323 324 325 325 326 327 328 325 324 324 325 325 324 325 326 326 321 319 320 319 316 315 313 311 309 307 307 307 307 307 307 309 312 312 314 315 315 314 320 324 323 325
324 325 326 328 329 328 327 326 325 325 325 325 326 323 323 323 324 319 319 318 317 315 312 312 310 309 307 307 309 309 308 307 308 311 311 316 315 312 312 312 316 316 327
326 325 323 322 323 323 323 322 322 321 322 324 324 325 325 324 322 318 317 315 314 311 310 310 309 307 306 308 305 306 305 306 308 310 311 311 311 311 314 312 313 319 320
324 323 322 321 322 323 323 323 322 322 323 323 325 324 325 322 320 320 316 315 313 310 308 308 307 306 306 307 303 302 298 300 306 307 307 309 312 313 314 315 320 318 318
319 320 319 318 318 318 321 323 322 323 320 321 322 323 323 323 322 322 318 315 311 310 307 307 307 305 304 306 306 302 297 295 301 303 305 307 308 308 310 313 318 319 318
316 317 317 317 317 318 318 317 316 314 314 318 318 322 321 321 318 320 318 312 310 310 308 308 310 308 305 303 304 306 303 302 298 296 301 303 306 307 309 311 316 317 317
314 314 316 316 316 317 317 318 316 315 317 318 316 314 314 315 316 315 314 311 312 310 308 309 308 308 306 304 302 302 300 301 300 297 295 300 302 306 310 314 314 313 313
315 316 316 315 315 316 316 317 317 315 313 313 312 312 312 312 311 312 312 312 311 309 308 308 308 307 306 305 304 303 300 299 299 297 295 299 298 303 310 311 311 311 310
Wind_Speed
7 11 16 17 16 16 16 18 17 17 16 16 17 17 16 15 15 15 16 16 15 16 17 17 17 16 16 16 16 16 16 16 16 15 14 12 11 9 4 4 5 8 8
15 11 16 16 17 17 17 18 17 16 16 16 17 16 15 15 17 16 17 17 16 17 17 16 16 16 16 16 16 16 17 18 18 18 17 14 14 10 7 2 4 5 6
15 13 14 16 17 17 17 16 16 16 16 16 16 15 16 17 17 17 17 16 16 17 16 16 16 15 15 15 16 16 17 18 19 20 19 8 12 13 10 3 3 4 5
15 12 11 17 17 18 18 17 16 16 16 15 15 17 18 17 17 17 16 15 16 16 15 15 14 14 14 14 14 14 15 17 19 21 9 10 8 13 9 6 2 6 8
13 11 12 16 16 17 18 17 16 16 15 16 17 18 18 17 16 16 15 14 15 15 14 14 13 12 12 12 12 14 15 17 19 16 8 7 4 8 9 8 8 9 11
14 11 14 16 16 15 18 17 15 16 17 17 18 18 17 17 16 15 15 14 14 14 13 11 11 11 10 11 13 14 16 18 19 8 9 5 5 7 8 9 9 10 11
14 12 13 17 17 17 17 17 18 17 16 16 16 16 17 16 15 14 14 13 12 10 9 8 7 7 8 9 12 14 17 19 13 9 9 3 3 7 9 10 10 10 10
16 12 12 17 16 15 16 18 17 16 16 16 15 15 15 15 14 13 12 10 9 7 5 4 4 5 6 9 11 12 16 20 12 9 10 2 5 6 9 10 10 10 10
17 13 10 11 16 18 18 17 16 15 14 13 13 13 13 14 13 12 11 8 7 4 1 2 4 7 9 12 15 18 17 18 11 6 7 2 4 7 9 8 9 10 10
17 16 12 11 12 12 12 19 17 15 13 11 10 10 10 10 11 10 8 6 5 4 2 4 8 9 10 13 16 17 18 15 8 7 6 2 6 7 7 7 7 9 10
17 16 17 12 11 11 10 12 14 16 14 12 10 8 6 3 4 7 5 7 5 5 4 6 9 10 11 12 14 15 14 4 6 5 4 3 5 8 8 8 8 9 10
23 21 18 19 15 10 8 7 6 7 5 5 5 6 4 4 4 6 6 5 6 4 4 8 14 10 7 3 4 8 3 6 4 5 6 13 15 13 13 12 10 12 12
17 19 20 18 16 13 9 6 4 4 3 3 6 6 3 5 4 4 2 2 2 7 3 5 6 4 5 5 5 5 6 6 3 4 8 17 15 18 17 14 13 13 12
39 20 18 19 14 11 6 3 3 3 3 4 5 7 5 3 4 4 3 5 4 2 4 4 3 5 6 6 7 7 7 7 4 5 7 18 18 20 21 21 15 11 9
29 28 22 13 10 9 5 6 4 5 7 6 5 4 5 4 4 4 4 4 3 3 4 5 5 4 5 6 7 7 6 8 7 4 3 18 21 18 14 12 9 7 11
22 10 7 11 6 8 9 8 6 7 7 5 6 6 6 5 4 4 4 4 4 4 4 5 4 4 4 5 7 7 8 6 8 8 7 6 19 12 11 11 11 10 13
18 17 8 8 11 9 7 8 7 7 6 6 5 7 5 5 4 5 4 4 4 4 6 5 4 4 4 5 6 6 6 7 8 10 9 7 4 6 8 9 11 12 13
6 4 11 10 9 10 7 7 6 6 4 4 2 4 5 4 4 6 4 4 3 4 4 3 3 4 4 4 5 5 5 5 7 9 7 7 4 3 6 15 16 17 18
8 11 10 9 8 6 7 7 8 6 5 4 4 4 6 3 6 5 3 3 4 3 3 2 2 2 3 4 5 4 5 5 7 7 6 5 5 4 3 10 9 14 16
12 9 8 8 8 7 5 5 4 3 3 2 3 3 4 3 4 4 2 3 4 4 4 2 2 3 2 4 5 5 6 4 4 7 7 7 5 5 6 6 5 5 16
8 11 11 10 9 7 5 3 4 5 4 5 4 6 6 2 4 2 3 3 3 2 1 1 2 3 3 3 3 5 4 4 4 7 5 6 5 5 4 5 4 3 6
12 12 10 9 7 4 2 2 2 3 3 4 4 5 4 4 4 3 4 2 1 2 4 2 3 3 3 2 2 2 4 5 6 7 6 6 7 5 5 6 5 6 5
11 8 7 6 6 4 5 3 3 2 2 2 5 4 3 2 5 4 5 4 2 1 2 1 2 2 3 4 3 1 3 2 6 3 4 6 8 5 4 5 7 5 5
8 6 6 6 6 5 4 4 4 3 3 3 3 4 4 5 6 5 6 5 4 2 2 1 1 2 0 4 3 2 2 3 1 5 3 4 8 8 6 4 6 8 8
5 6 5 5 5 3 4 5 4 5 4 3 2 5 6 5 3 5 6 6 4 2 2 2 3 4 2 1 1 2 2 1 2 1 4 7 5 5 4 6 5 5 7
2 1 2 2 1 3 5 7 9 8 5 4 4 4 4 3 1 3 4 4 4 3 2 2 3 4 3 2 2 2 1 2 2 0 2 5 4 4 3 4 4 4 4
Wind_Direction
130 133 126 121 116 110 108 109 106 104 101 98 93 89 85 84 83 80 77 77 77 72 68 64 58 50 44 39 32 23 13 3 355 347 342 334 310 296 288 321 348 108 106
136 132 128 124 122 120 117 114 113 108 105 102 100 95 92 88 84 81 79 77 73 72 70 63 55 48 41 34 27 19 9 358 348 343 334 317 287 256 222 274 3 77 91
129 130 129 127 124 120 116 115 113 111 109 106 105 104 95 92 90 86 83 79 76 72 65 59 54 48 41 33 24 15 5 355 345 339 335 318 285 236 170 154 39 38 49
136 130 134 132 128 127 125 121 118 114 110 110 106 98 97 96 94 92 89 86 82 75 67 60 54 45 37 31 21 12 3 356 347 340 344 347 35 101 103 78 32 39 36
120 124 133 129 127 126 122 119 117 116 115 109 107 107 106 102 96 92 87 82 76 69 61 54 44 39 30 21 14 5 354 352 348 341 329 341 59 88 92 72 58 49 42
121 121 125 123 121 121 122 118 119 111 110 113 113 111 108 103 98 94 89 81 74 67 60 50 40 31 24 13 1 354 342 348 347 327 328 20 70 104 97 79 60 45 32
121 125 127 127 127 128 126 122 113 112 113 111 114 113 110 104 99 94 89 85 82 77 69 56 45 32 21 5 353 344 334 342 340 329 325 40 111 101 83 66 52 38 25
125 123 129 128 129 126 121 116 115 115 117 119 120 118 117 114 112 114 114 114 114 107 89 57 30 4 4 352 349 343 330 331 335 320 316 119 110 79 64 50 38 28 19
123 125 126 131 123 113 111 111 113 113 117 120 126 131 132 133 136 136 132 134 135 129 115 334 342 351 358 358 16 10 349 343 1 321 326 129 114 61 41 32 21 12 2
137 135 135 123 119 119 125 124 123 124 128 136 134 135 138 148 153 145 149 163 166 174 236 320 315 340 342 14 12 353 345 357 350 340 23 77 50 23 14 9 4 358 350
140 147 138 131 120 110 117 131 129 139 146 148 153 158 161 176 183 167 194 185 208 217 262 293 313 38 37 14 359 347 351 342 338 340 328 219 13 343 349 344 342 339 332
158 155 144 139 131 138 131 133 140 158 159 169 153 181 188 216 197 209 196 209 247 278 261 23 27 35 23 352 332 342 349 333 340 323 314 301 322 328 319 320 328 316 320
182 149 141 135 137 139 154 162 166 170 170 169 147 125 143 84 44 64 50 0 355 79 50 32 22 12 358 356 7 359 349 331 312 296 301 308 321 327 318 314 303 318 328
27 34 121 125 145 148 153 109 102 122 171 93 85 94 94 86 62 47 37 15 49 61 38 21 10 1 11 14 5 338 339 335 342 337 330 330 334 322 312 307 295 300 323
54 12 12 63 76 95 91 101 105 88 100 132 106 75 90 84 69 55 29 38 54 34 23 9 31 19 357 1 344 349 353 339 329 315 301 318 323 330 3 354 355 319 310
113 114 339 23 351 101 121 120 127 123 126 79 63 48 48 74 55 50 39 41 21 24 357 25 17 14 13 348 343 342 330 338 320 318 307 314 313 360 33 27 14 344 325
136 165 176 16 5 16 54 55 29 29 44 66 58 80 57 61 69 65 40 25 31 11 20 20 16 19 1 353 336 335 315 322 316 317 318 295 313 352 12 355 338 334 328
75 70 62 68 51 50 39 53 50 43 52 74 104 90 79 60 56 56 45 20 18 25 33 4 8 3 2 347 319 304 306 315 300 297 290 308 299 339 353 353 349 348 332
78 76 76 64 47 25 35 42 33 20 24 18 358 32 31 48 82 72 37 7 41 39 12 345 6 23 349 305 299 305 295 299 310 317 288 313 324 27 348 339 340 333 338
78 76 68 53 34 28 22 33 15 1 321 354 12 334 336 329 99 90 46 58 39 22 348 3 8 331 312 297 305 312 293 288 295 354 340 346 345 2 355 340 321 348 3
100 72 59 55 32 32 22 359 338 313 352 6 342 314 341 274 107 115 131 61 37 2 292 346 337 4 322 313 328 315 296 286 38 351 337 333 341 336 343 357 1 21 11
72 63 55 49 43 33 25 301 270 323 332 314 316 351 330 295 189 210 160 122 69 351 343 360 23 345 301 314 270 265 323 333 3 331 347 338 348 338 20 3 44 41 17
55 58 56 53 28 17 12 18 356 345 302 28 327 320 309 268 267 257 169 162 179 213 285 315 356 32 305 308 334 135 350 336 324 335 338 340 347 345 8 10 20 39 37
41 38 56 41 42 354 8 22 350 25 4 279 255 292 302 290 284 282 185 160 178 226 271 302 349 295 199 293 344 3 111 190 344 323 316 347 339 349 15 20 22 15 21
51 33 10 50 17 301 356 18 339 292 250 253 305 318 308 300 329 133 158 173 177 218 249 326 319 316 309 286 334 315 2 357 107 248 308 332 340 336 34 33 28 21 13
202 203 225 358 331 326 314 281 254 261 309 318 313 313 312 306 242 184 186 204 180 201 232 250 269 291 274 301 258 336 341 296 277 125 300 328 282 317 28 42 18 14 1